Wind_Speed
61 52 50 59 65 67 67 69 71 70 64 69 71 72 69 64 67 58 49 50 51 46 42 44 46 44 42 43 43 38 32 28 25 16 13 10 14 18 20 20 18 19 23 15
62 56 68 69 67 67 64 64 69 67 63 67 73 66 62 60 53 44 45 44 41 38 38 41 39 38 38 41 35 30 26 26 19 6 9 14 19 24 23 20 17 14 16 18
62 70 70 68 69 72 72 67 61 60 63 64 67 68 54 43 40 41 41 44 39 36 33 35 35 35 38 34 28 24 24 24 14 3 5 11 15 20 20 20 20 16 18 19
70 76 72 69 70 67 62 63 63 59 62 67 68 59 41 34 36 38 37 36 38 32 33 36 35 36 34 28 22 23 23 18 11 3 7 4 9 14 16 20 22 18 18 22
71 72 73 71 61 64 60 63 62 61 62 65 60 35 32 26 28 30 29 29 32 33 33 33 34 33 27 21 21 21 21 13 5 4 5 10 14 16 18 24 23 19 18 22
72 69 68 67 65 65 66 66 62 62 63 49 35 30 26 25 25 28 28 27 31 30 31 31 30 26 20 18 21 20 17 11 2 2 6 13 12 15 16 19 23 20 14 17
70 70 70 72 71 71 68 63 60 56 41 32 30 25 20 27 28 33 31 30 25 26 29 26 25 19 16 18 20 18 13 10 4 5 15 14 15 16 18 22 22 14 11 16
71 69 62 59 57 53 54 50 37 34 32 29 24 18 19 26 31 32 33 32 27 26 25 23 23 15 14 18 18 14 10 6 7 10 16 19 14 12 17 23 24 11 13 17
61 53 54 51 43 41 32 25 34 30 29 23 19 18 19 25 28 32 34 33 25 24 26 24 19 13 13 17 16 11 7 2 8 11 20 15 15 11 17 20 24 12 14 18
52 50 47 43 41 35 27 30 29 28 27 18 18 18 20 26 27 29 32 33 27 25 24 24 17 11 13 18 14 8 3 3 10 12 22 20 14 12 17 15 20 13 11 12
55 52 45 43 29 29 28 28 30 30 21 21 17 20 22 23 26 29 33 35 30 27 23 22 15 11 13 18 12 8 1 5 12 15 24 21 21 13 11 19 20 13 8 13
56 52 52 36 36 37 38 35 32 23 22 20 18 23 22 23 25 30 32 34 32 26 25 23 18 11 11 16 10 8 2 5 12 14 20 21 14 15 16 12 18 15 12 17
61 61 55 50 44 42 36 34 28 24 23 21 24 24 20 24 25 28 28 33 34 27 26 27 21 11 12 12 8 7 2 3 10 19 22 17 14 16 16 12 12 20 13 16
72 64 52 48 43 40 35 31 30 31 26 25 26 28 23 22 25 28 29 29 33 31 25 26 18 10 12 13 9 7 4 1 6 20 23 20 17 18 20 16 7 13 18 12
77 68 50 49 50 46 45 44 36 31 27 21 31 29 26 25 25 27 28 28 31 33 26 24 20 15 11 12 12 8 6 2 5 15 26 22 16 16 22 16 13 12 15 20
83 68 58 54 52 47 44 42 40 36 29 31 34 29 28 27 28 24 28 28 30 32 27 22 21 16 12 12 12 10 8 1 4 6 26 23 18 21 21 17 13 6 11 18
84 70 67 57 56 51 45 45 39 37 36 34 33 34 29 28 32 30 28 27 29 30 29 21 22 20 17 15 10 10 8 4 1 4 14 27 21 17 22 19 16 8 6 14
80 72 73 63 63 57 45 44 43 42 41 35 36 35 34 30 30 34 27 28 27 30 29 30 21 23 21 17 13 10 8 7 1 2 7 23 24 20 14 12 19 15 10 7
80 75 82 71 66 61 53 50 52 47 43 39 42 39 38 31 30 34 29 28 27 26 28 29 25 21 21 20 15 9 9 7 4 1 4 14 25 21 21 18 18 18 17 12
84 81 83 80 75 66 56 56 56 51 47 44 45 42 41 34 33 37 30 29 29 24 26 29 29 20 21 20 20 14 8 8 5 2 2 4 13 17 17 19 20 17 19 16
91 88 90 85 82 76 66 65 61 55 49 51 48 46 46 37 39 34 32 34 30 27 23 26 29 26 20 20 21 22 14 8 7 5 3 4 7 9 13 13 15 17 15 16
94 94 93 88 86 81 71 71 65 61 58 54 50 48 49 40 42 37 36 35 30 28 25 23 25 26 22 20 17 20 18 13 7 7 6 5 5 8 9 8 10 13 14 14
99 100 94 90 87 81 76 76 78 69 65 62 56 54 49 48 44 40 41 36 31 29 26 23 24 26 25 21 16 18 18 16 13 7 8 8 7 7 7 10 12 12 12 11
100 100 101 97 92 85 78 77 79 72 70 68 61 58 56 53 48 45 44 39 34 31 28 25 24 24 27 24 19 17 17 17 15 14 9 10 9 9 8 9 9 9 12 15
115 109 95 93 93 89 88 84 80 73 71 70 67 63 62 58 52 47 44 41 36 33 31 26 25 24 24 24 21 20 19 20 17 17 15 13 12 10 10 11 11 11 10 12
110 106 101 97 97 96 88 83 78 67 56 76 70 66 64 61 54 50 45 43 39 38 33 29 27 26 25 24 19 20 22 19 24 19 19 19 16 16 13 10 10 9 9 12
Wind_Direction
250 256 255 245 249 253 258 261 267 271 285 288 296 302 305 309 307 308 306 301 301 299 295 298 303 309 313 314 313 314 310 309 317 320 316 350 352 355 348 333 346 359 1 351
242 243 252 253 255 261 265 270 276 284 287 287 292 300 306 305 305 301 298 304 305 302 301 300 303 309 314 313 314 312 309 313 322 299 343 345 353 356 351 338 338 3 4 3
244 245 249 251 256 261 264 274 286 287 288 293 297 303 299 301 299 295 299 302 302 304 303 301 306 310 319 313 317 309 315 316 318 263 27 350 353 340 340 340 336 341 356 10
242 246 250 254 260 269 276 282 285 290 291 291 294 299 294 295 293 302 304 302 302 308 308 304 306 311 318 313 313 315 318 321 311 52 40 342 350 346 352 340 332 0 9 21
254 253 254 261 271 272 277 276 281 282 289 292 292 284 284 300 309 309 305 309 302 309 312 307 307 314 313 315 314 324 318 322 305 37 28 65 45 33 20 12 8 354 4 2
251 255 258 264 267 271 274 276 280 283 288 286 277 275 288 314 322 325 321 327 320 317 310 308 312 315 318 316 320 328 318 318 262 261 89 81 63 25 6 21 14 359 7 9
253 255 257 260 263 270 272 270 277 282 273 263 266 276 303 317 327 335 335 334 326 320 314 315 318 315 323 323 326 332 321 315 205 150 112 98 75 46 24 18 20 14 37 22
258 263 266 264 260 256 262 268 268 254 254 257 266 279 311 317 332 336 339 341 334 329 320 325 319 323 332 328 333 339 323 323 164 147 130 113 83 49 21 18 24 39 47 30
248 248 249 252 248 254 248 240 238 243 249 253 266 287 314 318 326 338 340 342 335 327 330 326 312 330 339 336 337 339 325 6 156 154 139 118 101 71 42 14 31 63 57 65
238 238 244 237 235 233 222 227 239 240 244 251 274 300 311 319 334 336 341 347 341 335 336 328 320 329 341 340 336 331 316 61 157 150 140 128 104 84 54 40 31 64 59 93
232 230 235 234 234 225 226 226 231 238 245 251 274 289 309 322 330 344 346 351 343 339 335 326 320 324 341 341 331 331 307 82 164 155 144 133 120 70 66 52 43 74 51 84
236 230 232 226 221 219 218 219 230 234 245 254 276 282 301 309 333 339 345 351 348 339 334 327 320 323 331 342 324 350 299 96 166 158 159 156 136 86 95 45 51 59 104 114
233 233 227 224 220 221 217 217 223 236 248 258 272 280 295 308 322 337 344 347 349 343 334 335 316 325 333 342 322 0 351 115 157 162 161 171 131 102 95 98 68 51 90 126
231 231 223 228 233 225 217 212 225 232 237 250 268 281 294 305 316 330 342 342 347 346 335 332 319 317 331 341 334 351 3 178 143 180 170 183 148 135 118 106 68 73 60 98
228 232 226 223 228 223 215 210 219 229 236 255 262 276 286 301 310 321 331 342 341 347 337 332 328 313 329 336 342 341 358 226 171 178 173 180 176 153 151 134 109 85 82 75
225 225 224 221 224 221 215 218 223 230 241 250 261 273 280 295 300 315 325 340 337 343 341 336 338 322 323 324 344 336 353 22 186 162 192 188 183 170 169 157 146 115 104 97
223 221 226 224 226 223 215 218 225 229 236 246 260 266 279 291 298 309 318 332 333 340 345 336 334 326 319 324 334 343 344 6 138 167 184 192 186 194 188 188 185 174 140 114
226 224 227 223 229 227 219 220 226 234 239 245 256 267 275 280 289 298 313 321 328 334 338 342 331 325 316 319 333 347 338 357 26 84 163 194 191 202 194 198 202 209 179 166
224 220 230 227 232 232 226 224 231 236 240 246 252 260 267 276 286 289 303 311 317 327 331 335 336 323 311 312 313 330 340 335 357 86 118 185 203 203 204 214 217 212 220 230
221 221 226 229 231 234 232 233 235 235 239 243 251 260 266 273 280 282 295 297 304 320 327 331 333 318 307 297 306 309 326 328 316 321 200 174 184 203 219 230 225 221 226 240
216 219 224 227 230 231 228 233 236 238 242 245 249 255 263 269 272 279 285 286 296 309 321 324 329 322 306 301 292 298 302 312 307 288 275 244 239 212 213 219 220 223 225 231
215 219 223 224 227 230 228 233 239 240 241 246 249 254 259 266 270 275 279 280 289 299 311 321 322 321 302 300 297 293 293 296 293 286 269 256 251 248 232 210 216 227 232 234
217 216 220 225 226 228 228 229 235 236 240 245 249 255 260 263 266 271 274 277 281 290 300 311 314 315 310 293 304 287 281 290 289 277 278 265 256 247 251 243 238 239 233 231
217 220 218 221 224 224 228 230 236 236 240 244 246 251 256 259 262 265 267 269 274 281 292 301 309 311 310 301 288 284 272 273 287 283 273 260 255 253 248 252 252 243 244 243
217 218 219 224 226 225 224 227 232 233 239 244 246 247 252 254 256 259 262 264 269 274 284 292 298 302 307 303 285 281 274 264 269 272 272 271 264 253 250 251 254 253 248 248
216 218 218 219 224 230 228 228 231 233 249 239 242 243 246 249 251 252 256 261 265 270 278 285 288 294 300 300 288 268 270 269 260 266 270 269 270 268 259 249 250 252 253 257
Height
10746 10758 10763 10756 10755 10761 10765 10761 10760 10758 10753 10751 10749 10749 10746 10740 10734 10728 10722 10715 10710 10705 10700 10696 10691 10686 10679 10673 10666 10660 10655 10651 10647 10644 10640 10637 10633 10628 10624 10619 10613 10606 10600 10594
10741 10754 10737 10740 10749 10752 10748 10748 10748 10748 10747 10742 10742 10742 10739 10733 10729 10721 10714 10708 10702 10696 10693 10689 10685 10679 10674 10666 10661 10655 10652 10647 10644 10642 10638 10636 10631 10627 10623 10618 10611 10606 10600 10594
10729 10726 10729 10736 10740 10739 10738 10737 10737 10739 10737 10735 10736 10735 10731 10725 10722 10716 10710 10702 10696 10691 10687 10683 10678 10673 10668 10661 10655 10652 10647 10643 10641 10640 10637 10636 10631 10628 10623 10617 10610 10606 10601 10595
10718 10712 10720 10723 10727 10725 10726 10725 10727 10729 10727 10727 10730 10730 10726 10719 10716 10709 10704 10698 10688 10686 10681 10677 10673 10668 10663 10656 10653 10649 10644 10641 10639 10637 10635 10634 10631 10628 10624 10617 10611 10606 10601 10596
10706 10701 10709 10713 10714 10715 10717 10716 10722 10720 10720 10722 10723 10723 10720 10715 10710 10704 10699 10693 10686 10682 10677 10671 10666 10663 10658 10653 10651 10646 10641 10639 10637 10636 10635 10633 10632 10629 10624 10618 10612 10606 10602 10598
10688 10690 10696 10697 10699 10703 10705 10708 10709 10711 10714 10714 10714 10716 10713 10709 10703 10698 10692 10690 10681 10677 10671 10666 10663 10659 10655 10651 10647 10643 10639 10637 10636 10635 10635 10633 10633 10630 10624 10618 10613 10608 10603 10600
10665 10673 10679 10683 10691 10696 10695 10696 10702 10706 10706 10706 10709 10710 10707 10704 10698 10691 10687 10683 10677 10671 10667 10663 10660 10655 10652 10649 10645 10641 10637 10636 10635 10635 10635 10635 10634 10632 10627 10620 10614 10609 10607 10603
10660 10669 10672 10674 10679 10678 10685 10690 10694 10695 10698 10701 10704 10703 10703 10699 10693 10690 10684 10677 10671 10668 10664 10660 10657 10653 10650 10647 10643 10639 10637 10635 10634 10635 10634 10636 10635 10634 10631 10624 10617 10613 10610 10608
10644 10655 10653 10662 10665 10671 10677 10683 10682 10689 10692 10697 10698 10697 10697 10694 10692 10687 10681 10676 10669 10665 10662 10658 10655 10652 10650 10647 10643 10639 10637 10636 10635 10635 10636 10638 10637 10636 10635 10628 10621 10617 10615 10613
10635 10637 10646 10650 10654 10662 10670 10674 10679 10683 10687 10691 10691 10691 10691 10689 10686 10685 10678 10672 10666 10662 10659 10656 10653 10651 10649 10646 10642 10639 10638 10636 10636 10636 10637 10639 10638 10639 10638 10633 10626 10623 10621 10618
10617 10625 10635 10640 10655 10660 10665 10669 10672 10675 10682 10684 10686 10686 10687 10685 10683 10680 10675 10668 10664 10661 10658 10655 10653 10651 10649 10646 10643 10640 10637 10637 10636 10637 10639 10640 10640 10642 10641 10637 10632 10627 10626 10623
10609 10620 10622 10640 10646 10648 10653 10659 10665 10671 10674 10678 10680 10681 10681 10681 10679 10676 10671 10669 10663 10659 10658 10655 10652 10649 10648 10646 10644 10640 10638 10637 10636 10638 10639 10641 10643 10644 10645 10642 10639 10634 10630 10629
10594 10598 10616 10624 10632 10639 10647 10654 10660 10663 10668 10673 10672 10674 10678 10677 10676 10673 10672 10667 10662 10659 10657 10654 10651 10649 10648 10646 10644 10641 10638 10638 10637 10638 10640 10643 10646 10647 10648 10647 10644 10641 10638 10635
10570 10587 10606 10620 10630 10637 10643 10649 10651 10654 10663 10666 10667 10668 10672 10675 10673 10671 10668 10666 10662 10658 10656 10653 10650 10649 10648 10646 10644 10641 10639 10638 10638 10639 10640 10643 10646 10648 10650 10651 10650 10647 10644 10642
10553 10573 10600 10609 10612 10623 10632 10635 10641 10650 10657 10661 10660 10663 10668 10670 10670 10669 10667 10664 10661 10658 10654 10652 10650 10649 10648 10646 10644 10641 10639 10638 10638 10638 10640 10643 10646 10649 10652 10653 10654 10654 10652 10649
10538 10565 10583 10593 10602 10612 10624 10632 10636 10644 10651 10654 10654 10659 10661 10664 10667 10667 10664 10662 10660 10657 10653 10651 10649 10648 10647 10646 10644 10642 10640 10639 10639 10637 10639 10643 10646 10650 10653 10655 10656 10657 10657 10656
10533 10561 10569 10587 10591 10601 10614 10622 10633 10638 10642 10647 10649 10651 10656 10661 10660 10660 10662 10660 10658 10656 10652 10650 10649 10647 10646 10646 10644 10643 10641 10639 10639 10638 10637 10641 10645 10649 10652 10655 10657 10658 10660 10661
10540 10558 10558 10577 10580 10586 10610 10618 10624 10629 10634 10639 10644 10646 10650 10655 10657 10656 10659 10658 10656 10653 10651 10649 10648 10647 10645 10645 10645 10643 10642 10641 10640 10640 10638 10640 10644 10648 10650 10654 10656 10659 10660 10662
10531 10546 10542 10562 10568 10581 10596 10606 10610 10620 10629 10632 10636 10640 10642 10650 10653 10652 10655 10655 10654 10653 10650 10648 10648 10645 10644 10643 10643 10643 10643 10642 10641 10641 10641 10641 10644 10647 10650 10652 10655 10657 10659 10662
10515 10528 10530 10545 10555 10568 10590 10595 10601 10613 10618 10622 10630 10634 10636 10644 10648 10647 10652 10652 10651 10651 10649 10647 10646 10644 10642 10642 10642 10642 10643 10642 10641 10642 10642 10643 10644 10647 10649 10651 10652 10655 10657 10659
10492 10504 10511 10529 10537 10554 10578 10581 10589 10598 10614 10616 10622 10626 10627 10639 10640 10644 10647 10646 10648 10647 10647 10647 10644 10641 10640 10641 10640 10640 10642 10642 10642 10642 10642 10643 10645 10645 10647 10649 10651 10654 10655 10657
10476 10487 10496 10516 10524 10538 10567 10569 10580 10589 10596 10608 10614 10618 10619 10630 10632 10638 10641 10641 10644 10643 10642 10644 10643 10640 10638 10638 10638 10637 10639 10640 10641 10641 10641 10642 10644 10645 10646 10647 10649 10651 10652 10654
10455 10465 10484 10500 10515 10531 10548 10557 10559 10576 10585 10594 10603 10608 10613 10619 10626 10631 10633 10636 10638 10639 10638 10640 10640 10637 10636 10636 10636 10635 10636 10637 10639 10640 10641 10641 10642 10644 10645 10647 10648 10650 10651 10652
10436 10450 10466 10477 10492 10513 10529 10542 10549 10568 10575 10585 10594 10599 10604 10610 10618 10623 10626 10629 10632 10634 10634 10634 10635 10634 10633 10632 10633 10631 10633 10634 10636 10637 10638 10639 10640 10641 10643 10644 10646 10647 10649 10651
10406 10425 10457 10481 10485 10498 10509 10525 10538 10558 10567 10575 10584 10590 10594 10600 10609 10614 10617 10621 10624 10627 10628 10629 10629 10630 10630 10629 10629 10627 10629 10631 10633 10634 10635 10636 10638 10638 10639 10640 10642 10644 10645 10646
10405 10421 10442 10454 10465 10482 10501 10516 10532 10551 10550 10563 10571 10580 10584 10589 10598 10603 10610 10612 10616 10619 10621 10622 10623 10623 10625 10626 10625 10624 10624 10626 10628 10629 10631 10632 10633 10635 10635 10636 10637 10639 10641 10641